This is the latest recevied weather packets stored in our database for station/object DL9NEE-10. If no packets are shown the sender has not sent any weather packets the latest 10 day(s).
| Time | Temp. | Humidity | Pressure | Rain* | Wind** | Luminosity | Snow |
|---|---|---|---|---|---|---|---|
| 1777591191 | 11.67° C | 38% | 1029 hPa | - | - | - | - |
| 1777590290 | 12.22° C | 37% | 1028.8 hPa | - | - | - | - |
| 1777589390 | 12.22° C | 37% | 1028.8 hPa | - | - | - | - |
| 1777588489 | 12.22° C | 36% | 1028.7 hPa | - | - | - | - |
| 1777587589 | 12.22° C | 36% | 1028.7 hPa | - | - | - | - |
| 1777586689 | 12.78° C | 35% | 1028.6 hPa | - | - | - | - |
| 1777585789 | 12.78° C | 35% | 1028.6 hPa | - | - | - | - |
| 1777584889 | 13.33° C | 34% | 1028.6 hPa | - | - | - | - |
| 1777583989 | 13.33° C | 34% | 1028.5 hPa | - | - | - | - |
| 1777583089 | 13.33° C | 33% | 1028.5 hPa | - | - | - | - |
| 1777582189 | 13.89° C | 33% | 1028.5 hPa | - | - | - | - |
| 1777581288 | 14.44° C | 32% | 1028.5 hPa | - | - | - | - |
| 1777580388 | 14.44° C | 31% | 1028.5 hPa | - | - | - | - |
| 1777579488 | 15° C | 31% | 1028.7 hPa | - | - | - | - |
| 1777578588 | 15.56° C | 30% | 1028.4 hPa | - | - | - | - |
| 1777577688 | 16.11° C | 30% | 1028.3 hPa | - | - | - | - |
| 1777576788 | 16.11° C | 30% | 1028.2 hPa | - | - | - | - |
| 1777575888 | 16.11° C | 29% | 1028.1 hPa | - | - | - | - |
| 1777574987 | 16.67° C | 28% | 1027.9 hPa | - | - | - | - |
| 1777574087 | 17.22° C | 27% | 1027.8 hPa | - | - | - | - |
| 1777573187 | 17.78° C | 27% | 1027.7 hPa | - | - | - | - |
| 1777572287 | 18.33° C | 27% | 1027.6 hPa | - | - | - | - |
| 1777571387 | 18.89° C | 26% | 1027.5 hPa | - | - | - | - |
| 1777570487 | 19.44° C | 26% | 1027.6 hPa | - | - | - | - |
| 1777569587 | 19.44° C | 26% | 1027.5 hPa | - | - | - | - |
* Rain since midnight (hover to see other rain measurements)
** Current wind speed in m/s (hover to see current wind gust speed)